Change the Weather History Date:

Sunday, March 9, 2014

  Actual Average Record
Temperature  
Mean Temperature 27 °F 27 °F  
Max Temperature 42 °F 36 °F 54 °F (1977)
Min Temperature 11 °F 18 °F -10 °F (1984)
Degree Days  
Heating Degree Days 38 38  
Month to date heating degree days 489 356  
Since 1 July heating degree days 7436 6492  
Cooling Degree Days 0 0  
Month to date cooling degree days 0 0  
Year to date cooling degree days 0 0  
Moisture  
Dew Point 18 °F    
Average Humidity 69    
Maximum Humidity 88    
Minimum Humidity 49    
Precipitation  
Precipitation 0.00 in 0.05 in 1.08 in (1992)
Month to date precipitation 0.08 0.44  
Year to date precipitation 3.02 2.38  
Snow  
Snow 0.00 in 0.30 in 8.00 in (1909)
Month to date snowfall 1.3 3.6  
Since 1 July snowfall 70.9 48.9  
Snow Depth 23.00 in    
Sea Level Pressure  
Sea Level Pressure 29.88 in    
Wind  
Wind Speed 8 mph (SW)    
Max Wind Speed 22 mph    
Max Gust Speed 32 mph    
Visibility 10 miles    
Events      
T = Trace of Precipitation, MM = Missing Value Source: NWS Daily Summary

Daily Weather History Graph

Daily Weather History Graph

Search for Another Location

Airport or City:

Trip Planner

Search our weather history database for the weather conditions in past years. The results will help you decide how hot, cold, wet, or windy it might be!

Date:

Astronomy

Mar. 09, 2014 Rise Set
Actual Time 7:21 AM CDT 6:56 PM CDT
Civil Twilight 6:52 AM CDT 7:26 PM CDT
Nautical Twilight 6:18 AM CDT 8:00 PM CDT
Astronomical Twilight 5:44 AM CDT 8:34 PM CDT
Moon 12:38 PM CDT (3/9) 3:58 AM CDT (3/9)
Length of Visible Light 12h 33m
Length of Day
11h 34m
First Quarter, 61% of the Moon is Illuminated
Mar 9
First Quarter
Mar 16
Full
Mar 23
Last Quarter
Mar 30
New
Apr 7
First Quarter

Hourly Weather History & Observations

Time (CDT) Temp. Windchill Dew Point Humidity Pressure Visibility Wind Dir Wind Speed Gust Speed Precip Events Conditions
12:54 AM 15.1 °F - 6.1 °F 68% 30.19 in 10.0 mi Calm Calm - N/A   Clear
1:54 AM 12.0 °F - 8.1 °F 84% 30.16 in 10.0 mi Calm Calm - N/A   Clear
3:54 AM 15.1 °F 4.2 °F 8.1 °F 74% 30.14 in 10.0 mi WNW 8.1 mph - N/A   Clear
4:54 AM 14.0 °F - 8.1 °F 77% 30.12 in 10.0 mi Calm Calm - N/A   Scattered Clouds
5:54 AM 14.0 °F 3.9 °F 8.1 °F 77% 30.12 in 10.0 mi WSW 6.9 mph - N/A   Clear
6:54 AM 12.0 °F 5.9 °F 8.1 °F 84% 30.10 in 10.0 mi SW 3.5 mph - N/A   Clear
7:54 AM 14.0 °F 2.9 °F 10.0 °F 84% 30.07 in 9.0 mi SW 8.1 mph - N/A   Clear
8:54 AM 16.0 °F 6.3 °F 10.0 °F 77% 30.04 in 10.0 mi SW 6.9 mph - N/A   Clear
9:54 AM 19.9 °F 11.1 °F 10.9 °F 68% 30.01 in 10.0 mi South 6.9 mph - N/A   Clear
10:54 AM 23.0 °F 13.1 °F 12.0 °F 63% 29.96 in 10.0 mi SSW 9.2 mph - N/A   Clear
11:54 AM 25.0 °F 14.8 °F 15.1 °F 66% 29.91 in 10.0 mi South 10.4 mph - N/A   Clear
12:54 PM 30.0 °F 20.5 °F 17.1 °F 59% 29.85 in 10.0 mi South 11.5 mph - N/A   Clear
1:54 PM 35.1 °F 26.9 °F 21.0 °F 57% 29.78 in 10.0 mi South 11.5 mph 24.2 mph N/A   Clear
2:54 PM 39.9 °F 30.8 °F 24.1 °F 53% 29.75 in 10.0 mi SW 18.4 mph 27.6 mph N/A   Clear
3:54 PM 42.1 °F 35.2 °F 24.1 °F 49% 29.73 in 10.0 mi WSW 12.7 mph 20.7 mph N/A   Clear
4:54 PM 42.1 °F 34.9 °F 26.1 °F 53% 29.71 in 10.0 mi WSW 13.8 mph 26.5 mph N/A   Clear
5:54 PM 41.0 °F 34.7 °F 27.0 °F 57% 29.71 in 10.0 mi WSW 10.4 mph - N/A   Clear
6:54 PM 41.0 °F 35.2 °F 27.0 °F 57% 29.71 in 10.0 mi West 9.2 mph - N/A   Clear
7:54 PM 39.9 °F 34.5 °F 28.0 °F 63% 29.71 in 10.0 mi WSW 8.1 mph - N/A   Scattered Clouds
8:54 PM 39.0 °F 32.8 °F 28.9 °F 67% 29.69 in 10.0 mi SW 9.2 mph - N/A   Partly Cloudy
9:54 PM 37.9 °F 31.5 °F 28.9 °F 70% 29.70 in 10.0 mi WSW 9.2 mph - N/A   Clear
10:54 PM 37.0 °F 31.6 °F 28.9 °F 73% 29.68 in 10.0 mi WSW 6.9 mph - N/A   Clear
11:54 PM 35.1 °F 31.0 °F 28.9 °F 78% 29.67 in 10.0 mi WSW 4.6 mph - N/A   Clear
12:54 AM 34.0 °F - 28.9 °F 82% 29.67 in 10.0 mi Calm Calm - N/A   Clear